[[{"header":{"parameterUnit":"m.s-1","parameterCategory":1,"la1":30.2991,"la2":30.254,"lo1":-89.0895,"lo2":-89.0444,"dy":0.0017,"dx":0.0017,"nx":28,"ny":28,"refTime":"2025-11-16T03:00:00:Z","depth":0,"parameterNumber":2,"parameterNumberName":"U-component_of_WINDS"},"data":[0,0,0,0,0,0,0,0,0,0,0,0,0,0,0,0,0,0,0,0,0,0,0,0,0,0,0,0,0,0,0,0,0,0,0,0,0,0,0,0,0,0,0,0,0,0,0,0,0,0,0,0,0,0,0,0,0,0,0.8761,0.8761,0,0.8788,0.8789,0.8789,0.8781,0.8781,0.878,0.878,0.8809,0.8811,0.8812,0,0,0,0,0,0,0,0,0,0,0,0,0,0.8705,0.8706,0.8761,0.8761,0.8762,0.8788,0.8789,0.8789,0.8781,0.8781,0.878,0.8779,0.8809,0.8811,0.8812,0,0,0,0,0,0,0,0,0,0,0,0,0,0.873,0.8706,0.8761,0.8761,0.8761,0.8788,0.8789,0.8789,0.8781,0.8781,0.878,0.8779,0.8809,0.881,0.8812,0.8842,0,0,0.8818,0.8819,0,0,0,0,0,0,0,0,0.8729,0.8732,0.8761,0.8761,0.8761,0.878,0.878,0.8807,0.8782,0.8774,0.8779,0.8779,0.8801,0.8803,0.881,0.8843,0.8844,0.8819,0.882,0.8821,0.8821,0,0,0,0,0,0,0,0.8727,0.8731,0.8772,0.8761,0.8762,0.876,0.8763,0.8785,0.8792,0.8774,0.8774,0.8777,0.8801,0.8808,0.8811,0.8845,0.8819,0.882,0.8822,0.8822,0.8903,0.8904,0,0,0,0,0,0,0.8725,0.873,0.8771,0.8773,0.8743,0.8762,0.8765,0.8775,0.8791,0.8793,0.8778,0.8777,0.8805,0.8809,0.8812,0.8847,0.8821,0.8823,0.8824,0.8902,0.8903,0.8904,0,0,0,0,0,0,0.8723,0.8728,0.877,0.8751,0.8756,0.8764,0.8775,0.8776,0.8784,0.8794,0.8795,0.8784,0.8805,0.8809,0.8834,0.8848,0.8823,0.8825,0.8901,0.8903,0.8904,0.8918,0,0,0,0,0,0,0.8722,0.8728,0.8739,0.8751,0.8757,0.8791,0.8776,0.8777,0.8787,0.8786,0.88,0.8802,0.8805,0.8831,0.8836,0.885,0.8827,0.89,0.8902,0.8903,0.8916,0.8919,0.8922,0,0,0,0,0,0.872,0.8742,0.8739,0.8744,0.8771,0.8792,0.8795,0.8797,0.8788,0.8799,0.8806,0.8802,0.8846,0.8834,0.8839,0.8854,0.8899,0.8901,0.8903,0.8915,0.8919,0.8922,0,0,0,0,0,0,0.8731,0.8743,0.8741,0.8767,0.8779,0.879,0.8804,0.8801,0.8816,0.8814,0.8817,0.882,0.8846,0.8853,0.8839,0.8884,0.8871,0.8875,0.8878,0.8882,0.8885,0.8883,0.8828,0,0,0,0,0,0.8737,0.8752,0.8762,0.8785,0.8791,0.8797,0.8806,0.8806,0.8818,0.8823,0.8832,0.8844,0.8861,0.8872,0.8888,0.8917,0.892,0.893,0.8933,0.8936,0.8939,0.8955,0.8959,0.8911,0.8911,0.8911,0,0,0.8748,0.8757,0.8767,0.8787,0.8796,0.8813,0.8801,0.8819,0.8831,0.8826,0.885,0.8857,0.8871,0.8898,0.8911,0.8905,0.8953,0.8939,0.8941,0.8942,0.8958,0.8962,0.8966,0.8913,0.8913,0.8912,0,0,0.8778,0.8786,0.8805,0.8814,0.8827,0.8831,0.8836,0.8849,0.8853,0.8877,0.8873,0.8889,0.8918,0.8928,0.8937,0.8971,0.8967,0.8976,0.8992,0.9008,0.9012,0.9015,0.9027,0.9032,0.8979,0.8979,0.8979,0,0.879,0.8815,0.8816,0.8834,0.8844,0.8839,0.8859,0.8869,0.8887,0.8894,0.8887,0.8923,0.8932,0.8962,0.897,0.8977,0.8983,0.8974,0.9011,0.9014,0.9018,0.9029,0.9034,0.898,0.898,0.898,0.898,0,0.883,0.8847,0.8861,0.8878,0.8889,0.8908,0.8913,0.8924,0.8924,0.8929,0.8954,0.8965,0.8983,0.899,0.899,0.902,0.9016,0.901,0.8998,0.9023,0.9034,0.9038,0.8981,0.8981,0.8981,0.898,0,0,0.8866,0.8884,0.8889,0.8896,0.8911,0.8925,0.8944,0.8961,0.8971,0.8984,0.9,0.9025,0.902,0.903,0.9031,0.9045,0.9072,0.9038,0.9038,0.9044,0.9105,0.9109,0.9114,0.907,0.9071,0.9071,0.9104,0,0.8896,0.8929,0.8931,0.8962,0.8978,0.8974,0.8991,0.9003,0.9008,0.9023,0.9029,0.9047,0.9038,0.9044,0.9058,0.9065,0.9084,0.9063,0.9086,0.9087,0.9082,0.912,0.9124,0.9154,0.9108,0.9109,0.911,0,0.8936,0.8949,0.8981,0.8994,0.9,0.9015,0.9031,0.9046,0.9059,0.9062,0.9073,0.9073,0.9094,0.9081,0.911,0.9096,0.9106,0.9111,0.9112,0.9114,0.9099,0.9123,0.9164,0.9168,0.9116,0.9116,0.9115,0,0.8959,0.8985,0.9007,0.9014,0.9029,0.904,0.9047,0.9059,0.907,0.9084,0.9091,0.9108,0.9117,0.9131,0.9136,0.9126,0.9165,0.9152,0.9168,0.9168,0.9176,0.9175,0.9219,0.9183,0.9183,0.9183,0.9183,0,0.8992,0.9011,0.9018,0.9031,0.9053,0.9056,0.9078,0.9085,0.9096,0.9111,0.911,0.9125,0.913,0.9146,0.915,0.9174,0.9178,0.9182,0.9183,0.9182,0.9181,0.9187,0.9185,0.9184,0.9184,0.9184,0.9183,0,0.9021,0.9026,0.905,0.9062,0.9066,0.9082,0.9093,0.9107,0.9112,0.9132,0.9137,0.9145,0.9164,0.917,0.9193,0.9196,0.9224,0.9223,0.9219,0.9219,0.9234,0.9232,0.9283,0.929,0.925,0.925,0.925,0,0.9041,0.9056,0.907,0.908,0.9087,0.9104,0.9114,0.9118,0.9129,0.9145,0.9157,0.9176,0.919,0.9221,0.923,0.9248,0.9247,0.9264,0.925,0.9248,0.9247,0.9246,0.9247,0.9266,0.9267,0.9267,0.9267,0,0.9077,0.9079,0.9093,0.9109,0.9121,0.9134,0.9147,0.9155,0.9161,0.9174,0.9192,0.9204,0.9227,0.9246,0.9264,0.9272,0.9271,0.9272,0.9276,0.9275,0.9272,0.9274,0.9225,0.927,0.927,0.927,0.927,0.9269,0.9102,0.9115,0.9127,0.9143,0.9153,0.9165,0.9178,0.9185,0.9201,0.9219,0.9221,0.9242,0.9255,0.928,0.9289,0.9306,0.9301,0.9308,0.9309,0.9311,0.9312,0.927,0.9309,0.9309,0.9309,0.9309,0.9309,0,0.9137,0.9145,0.916,0.9177,0.919,0.9188,0.9201,0.9213,0.923,0.9243,0.9258,0.928,0.9298,0.9309,0.9327,0.9338,0.9338,0.9343,0.9342,0.9344,0.9315,0.9309,0.9343,0.9343,0.9343,0.9343,0.9343,0.9343,0.9157,0.9179,0.9182,0.9209,0.9217,0.9237,0.9245,0.9256,0.9266,0.929,0.9305,0.9312,0.9324,0.9343,0.936,0.9363,0.937,0.9375,0.9377,0.935,0.9346,0.9343,0.9337,0.9377,0.9377,0.9405,0.9406,0.9406]},{"header":{"parameterUnit":"m.s-1","parameterCategory":1,"la1":30.2991,"la2":30.254,"lo1":-89.0895,"lo2":-89.0444,"dy":0.0017,"dx":0.0017,"nx":28,"ny":28,"refTime":"2025-11-16T03:00:00:Z","depth":0,"parameterNumber":3,"parameterNumberName":"V-component_of_WINDS"},"data":[0,0,0,0,0,0,0,0,0,0,0,0,0,0,0,0,0,0,0,0,0,0,0,0,0,0,0,0,0,0,0,0,0,0,0,0,0,0,0,0,0,0,0,0,0,0,0,0,0,0,0,0,0,0,0,0,0,0,2.5295,2.5295,0,2.5297,2.5297,2.5297,2.5252,2.5251,2.525,2.5249,2.5251,2.5252,2.5253,0,0,0,0,0,0,0,0,0,0,0,0,0,2.5254,2.5255,2.5295,2.5295,2.5295,2.5297,2.5297,2.5297,2.5252,2.5251,2.5249,2.5248,2.525,2.5252,2.5253,0,0,0,0,0,0,0,0,0,0,0,0,0,2.5266,2.5256,2.5295,2.5273,2.5271,2.5297,2.5297,2.5297,2.5253,2.5251,2.5249,2.5247,2.525,2.5252,2.5253,2.5301,0,0,2.5259,2.526,0,0,0,0,0,0,0,0,2.5265,2.5267,2.5276,2.5275,2.5273,2.5272,2.5283,2.5298,2.5253,2.526,2.5249,2.5246,2.5259,2.526,2.5265,2.5301,2.5301,2.5259,2.526,2.5261,2.5261,0,0,0,0,0,0,0,2.5264,2.5267,2.5296,2.5277,2.5274,2.5264,2.5263,2.5286,2.527,2.5259,2.5256,2.5257,2.5258,2.5263,2.5264,2.5301,2.5259,2.526,2.5262,2.5262,2.5378,2.538,0,0,0,0,0,0,2.5266,2.5267,2.5296,2.5296,2.5264,2.5266,2.5265,2.5274,2.5269,2.5267,2.5258,2.5254,2.5261,2.5262,2.5264,2.532,2.5261,2.5262,2.5263,2.5376,2.5378,2.538,0,0,0,0,0,0,2.5266,2.527,2.5296,2.528,2.5283,2.5268,2.5279,2.5275,2.528,2.5269,2.5266,2.5266,2.526,2.5262,2.5292,2.532,2.5263,2.5265,2.5373,2.5376,2.5379,2.5432,0,0,0,0,0,0,2.5265,2.527,2.5287,2.5281,2.5284,2.5323,2.5281,2.5277,2.5283,2.5279,2.5275,2.5273,2.5258,2.529,2.5294,2.5321,2.5266,2.5371,2.5375,2.5378,2.5428,2.5437,2.5444,0,0,0,0,0,2.5263,2.5301,2.5288,2.5292,2.5305,2.5325,2.5327,2.5309,2.5286,2.5303,2.5296,2.5273,2.5316,2.5293,2.5298,2.5326,2.5369,2.5374,2.5378,2.5424,2.5435,2.5444,0,0,0,0,0,0,2.531,2.53,2.5285,2.5322,2.5325,2.5317,2.5339,2.532,2.533,2.5325,2.5302,2.5302,2.5337,2.5334,2.5309,2.5372,2.5339,2.5344,2.5372,2.5382,2.539,2.539,2.5268,0,0,0,0,0,2.5325,2.5341,2.5332,2.5365,2.5368,2.5353,2.5361,2.5348,2.5349,2.535,2.5345,2.5348,2.5363,2.5372,2.5385,2.5428,2.5427,2.5449,2.5457,2.5464,2.5469,2.5494,2.5504,2.5395,2.5395,2.5395,0,0,2.5355,2.5352,2.5363,2.5375,2.5375,2.5394,2.5354,2.5375,2.5389,2.5353,2.5382,2.5379,2.5381,2.5418,2.5434,2.5417,2.5499,2.547,2.5475,2.5477,2.5499,2.551,2.5519,2.5398,2.5398,2.5397,0,0,2.5419,2.5418,2.5447,2.5449,2.545,2.5441,2.5448,2.5444,2.544,2.5469,2.5443,2.5459,2.5484,2.5487,2.5492,2.556,2.554,2.5565,2.5607,2.5631,2.564,2.5647,2.5673,2.5682,2.557,2.557,2.557,0,2.5457,2.5483,2.5464,2.5487,2.5493,2.5463,2.5492,2.5495,2.55,2.5506,2.5487,2.5519,2.5517,2.5556,2.5573,2.5577,2.5586,2.5565,2.564,2.5647,2.5654,2.5678,2.5688,2.5573,2.5573,2.5573,2.5572,0,2.553,2.5549,2.5572,2.5579,2.5588,2.5614,2.5599,2.5611,2.5597,2.559,2.5621,2.5619,2.5631,2.5639,2.5625,2.5676,2.5666,2.5644,2.561,2.5668,2.569,2.5699,2.5578,2.5577,2.5576,2.5575,0,0,2.5622,2.5619,2.5628,2.5632,2.5632,2.5647,2.5673,2.5685,2.5696,2.5701,2.5723,2.5746,2.5726,2.5731,2.5718,2.5739,2.5795,2.5714,2.5714,2.573,2.5853,2.587,2.5881,2.5782,2.5783,2.5785,2.5853,0,2.5685,2.5728,2.5713,2.5757,2.5776,2.5748,2.5771,2.5774,2.5769,2.5784,2.5778,2.5795,2.5766,2.577,2.579,2.5784,2.582,2.5779,2.5802,2.5803,2.5803,2.5892,2.591,2.5975,2.5862,2.5863,2.5864,0,2.5764,2.5774,2.5821,2.582,2.5827,2.5848,2.5859,2.5873,2.5877,2.5872,2.588,2.5862,2.5888,2.5854,2.5891,2.5863,2.5872,2.5872,2.5874,2.5875,2.5838,2.5897,2.5995,2.6005,2.5878,2.5877,2.5876,0,2.5829,2.5853,2.5885,2.5889,2.5888,2.5904,2.5904,2.5906,2.5915,2.5925,2.5931,2.5944,2.5952,2.5962,2.595,2.5926,2.5989,2.5953,2.5986,2.5986,2.6,2.5999,2.6101,2.6005,2.6005,2.6005,2.6005,0,2.5901,2.5931,2.5914,2.5933,2.5966,2.5949,2.5982,2.598,2.5983,2.6002,2.5979,2.5997,2.5979,2.5996,2.5986,2.6019,2.6022,2.6019,2.6016,2.6022,2.6022,2.6027,2.6023,2.6007,2.6007,2.6006,2.6006,0,2.5978,2.5967,2.6,2.5998,2.5998,2.6023,2.6021,2.604,2.6033,2.6058,2.6063,2.6053,2.6073,2.6061,2.608,2.6074,2.6117,2.6107,2.6116,2.6113,2.6147,2.6144,2.6256,2.627,2.6165,2.6166,2.6166,0,2.6025,2.6047,2.6048,2.606,2.6062,2.608,2.609,2.6074,2.6086,2.6093,2.6111,2.6129,2.6142,2.6174,2.6169,2.6185,2.6176,2.6214,2.6178,2.6183,2.6178,2.6177,2.618,2.6221,2.6222,2.6223,2.6224,0,2.611,2.6104,2.6119,2.6133,2.6145,2.6155,2.6163,2.6174,2.6159,2.6173,2.6193,2.6203,2.6224,2.6242,2.6256,2.6257,2.6239,2.6236,2.6244,2.625,2.6255,2.6254,2.6136,2.6233,2.6232,2.6232,2.6231,2.6231,2.6174,2.6193,2.6197,2.6215,2.622,2.6229,2.6247,2.6243,2.626,2.6276,2.6265,2.6289,2.6295,2.6311,2.6315,2.6334,2.6319,2.6331,2.6334,2.6338,2.6343,2.6251,2.6336,2.6336,2.6336,2.6336,2.6336,0,2.6258,2.626,2.6277,2.629,2.6305,2.6286,2.6295,2.6309,2.633,2.6337,2.6351,2.6375,2.6393,2.639,2.6407,2.6423,2.6415,2.6428,2.6427,2.6428,2.6355,2.6346,2.6434,2.6434,2.6434,2.6434,2.6434,2.6434,2.6304,2.6337,2.6332,2.6368,2.6369,2.6393,2.6399,2.6408,2.6413,2.6441,2.6456,2.6455,2.6458,2.6475,2.6492,2.6491,2.6498,2.6515,2.6511,2.6442,2.6433,2.6423,2.6415,2.6516,2.6516,2.6582,2.6583,2.6583]}]]